KE8BSM Weather Reports


Display with metric or nautical units.
time (UTC)temp
F
wind
direction
speed
MPH
gust
MPH
rain 1hr
in
rain 24hr
in
rain mn
in
humidity
%
barometer
mb
20260902210917 86 226 5.0 9.0 0.00 0.00 0.00 63 1009.1
20260902210417 86 40 3.0 8.0 0.00 0.00 0.00 64 1009.3
20260902205917 85 228 0.0 1.0 0.00 0.00 0.00 65 1009.5
20260902205417 86 232 2.0 6.0 0.00 0.00 0.00 66 1009.6
20260902204917 86 34 1.0 5.0 0.00 0.00 0.00 65 1009.6
20260902204417 86 42 4.0 12.0 0.00 0.00 0.00 64 1009.7
20260902203937 86 204 1.0 3.0 0.00 0.00 0.00 64 1009.5
20260902203417 87 51 2.0 3.0 0.00 0.00 0.00 62 1009.5
20260902202937 87 217 3.0 7.0 0.00 0.00 0.00 62 1009.6
20260902202418 88 48 3.0 5.0 0.00 0.00 0.00 63 1009.7
20260902201918 88 126 2.0 4.0 0.00 0.00 0.00 62 1009.8
20260902201417 89 197 1.0 2.0 0.00 0.00 0.00 61 1009.8
20260902200917 89 86 2.0 8.0 0.00 0.00 0.00 61 1009.6
20260902200417 89 232 3.0 7.0 0.00 0.00 0.00 60 1009.5
20260902195938 89 51 3.0 8.0 0.00 0.00 0.00 61 1009.4
20260902195418 90 42 6.0 10.0 0.00 0.00 0.00 60 1009.4
20260902194938 90 50 3.0 7.0 0.00 0.00 0.00 59 1009.5
20260902194415 89 160 2.0 5.0 0.00 0.00 0.00 60 1009.5
20260902193918 89 302 3.0 5.0 0.00 0.00 0.00 61 1009.5
20260902193435 89 209 2.0 8.0 0.00 0.00 0.00 61 1009.5
20260902192935 89 49 2.0 5.0 0.00 0.00 0.00 61 1009.6
20260902192415 88 40 2.0 3.0 0.00 0.00 0.00 61 1009.6
20260902191915 88 71 3.0 4.0 0.00 0.00 0.00 60 1009.8
20260902191415 88 188 3.0 7.0 0.00 0.00 0.00 62 1009.8
20260902190915 88 177 3.0 3.0 0.00 0.00 0.00 63 1009.9
20260902190416 88 134 1.0 1.0 0.00 0.00 0.00 63 1010.0
20260902185915 88 202 1.0 2.0 0.00 0.00 0.00 65 1010.2
20260902185416 87 209 2.0 3.0 0.00 0.00 0.00 67 1010.2
20260902184916 87 154 1.0 1.0 0.00 0.00 0.00 66 1010.1
20260902184416 87 80 2.0 3.0 0.00 0.00 0.00 67 1010.0
20260902183916 86 69 1.0 2.0 0.00 0.00 0.00 68 1009.8
20260902183415 86 0.0 0.0 0.00 0.00 0.00 69 1009.8
20260902182916 86 53 2.0 3.0 0.00 0.00 0.00 68 1009.8
20260902182416 86 49 2.0 2.0 0.00 0.00 0.00 69 1009.8
20260902181916 86 53 2.0 2.0 0.00 0.00 0.00 71 1009.9
20260902181416 86 57 2.0 2.0 0.00 0.00 0.00 70 1010.0
20260902180916 86 78 1.0 2.0 0.00 0.00 0.00 72 1010.1
20260902180417 86 214 1.0 2.0 0.00 0.00 0.00 70 1010.2
20260902175917 86 56 1.0 2.0 0.00 0.00 0.00 70 1010.3
20260902175417 86 54 1.0 1.0 0.00 0.00 0.00 73 1010.4
20260902174917 86 52 2.0 4.0 0.00 0.00 0.00 71 1010.4
20260902174417 86 283 4.0 7.0 0.00 0.00 0.00 73 1010.6
20260902173923 86 358 1.0 2.0 0.00 0.00 0.00 72 1010.6
20260902173432 86 27 1.0 3.0 0.00 0.00 0.00 73 1010.6
20260902172943 85 207 2.0 6.0 0.00 0.00 0.00 75 1010.7
20260902172417 85 59 2.0 2.0 0.00 0.00 0.00 73 1010.8
20260902171943 85 161 3.0 7.0 0.00 0.00 0.00 75 1010.8
20260902171417 85 67 2.0 2.0 0.00 0.00 0.00 75 1010.8
20260902170916 85 127 1.0 2.0 0.00 0.00 0.00 77 1010.9
20260902170415 85 233 2.0 4.0 0.00 0.00 0.00 76 1010.9
20260902165916 85 77 2.0 2.0 0.00 0.00 0.00 76 1011.0
20260902165436 84 348 2.0 4.0 0.00 0.00 0.00 77 1011.0
20260902164916 84 252 1.0 2.0 0.00 0.00 0.00 78 1011.0
20260902164436 84 267 0.0 1.0 0.00 0.00 0.00 78 1011.1
20260902163936 83 0.0 0.0 0.00 0.00 0.00 80 1011.1
20260902163416 83 119 2.0 2.0 0.00 0.00 0.00 79 1011.1
20260902162916 83 271 0.0 0.0 0.00 0.00 0.00 79 1011.0
20260902162416 83 123 1.0 2.0 0.00 0.00 0.00 80 1010.9
20260902161916 83 76 0.0 1.0 0.00 0.00 0.00 80 1010.9
20260902161416 82 260 1.0 2.0 0.00 0.00 0.00 80 1011.0
20260902160916 82 117 1.0 1.0 0.00 0.00 0.00 81 1011.0
20260902160416 82 194 1.0 2.0 0.00 0.00 0.00 81 1011.1
20260902155916 82 0.0 0.0 0.00 0.00 0.00 81 1011.1
20260902155417 82 0.0 0.0 0.00 0.00 0.00 81 1011.0
20260902154917 82 343 1.0 2.0 0.00 0.00 0.00 80 1011.1
20260902154417 81 0.0 0.0 0.00 0.00 0.00 80 1011.2
20260902153917 81 81 0.0 1.0 0.00 0.00 0.00 80 1011.2
20260902153417 81 276 0.0 1.0 0.00 0.00 0.00 81 1011.3
20260902152957 81 349 2.0 2.0 0.00 0.00 0.00 82 1011.4
20260902152417 80 136 0.0 1.0 0.00 0.00 0.00 82 1011.3
20260902151917 80 206 0.0 0.0 0.00 0.00 0.00 83 1011.2
20260902151417 80 41 1.0 1.0 0.00 0.00 0.00 83 1011.3
20260902150917 80 260 0.0 0.0 0.00 0.00 0.00 83 1011.3
20260902150418 80 0.0 0.0 0.00 0.00 0.00 83 1011.5
20260902145918 80 274 0.0 1.0 0.00 0.00 0.00 82 1011.4
20260902145418 80 35 1.0 2.0 0.00 0.00 0.00 83 1011.5
20260902144918 80 0.0 0.0 0.00 0.00 0.00 83 1011.5
20260902144418 80 296 1.0 2.0 0.00 0.00 0.00 83 1011.5
20260902143918 79 58 0.0 0.0 0.00 0.00 0.00 83 1011.5
20260902143418 79 0.0 0.0 0.00 0.00 0.00 84 1011.5
20260902142918 79 8 0.0 0.0 0.00 0.00 0.00 85 1011.6
20260902142458 79 353 0.0 0.0 0.00 0.00 0.00 84 1011.5
20260902141918 79 30 1.0 2.0 0.00 0.00 0.00 85 1011.6
20260902141418 79 33 0.0 2.0 0.00 0.00 0.00 85 1011.6
20260902140918 79 26 2.0 3.0 0.00 0.00 0.00 85 1011.7
20260902140418 79 41 2.0 3.0 0.00 0.00 0.00 85 1011.9
20260902135939 79 16 1.0 2.0 0.00 0.00 0.00 85 1011.9
20260902135419 78 0.0 0.0 0.00 0.00 0.00 86 1011.9
20260902134919 78 77 0.0 0.0 0.00 0.00 0.00 86 1011.9
20260902134419 78 311 2.0 3.0 0.00 0.00 0.00 86 1012.0
20260902133919 78 200 2.0 3.0 0.00 0.00 0.00 87 1011.9
20260902133420 78 145 0.0 2.0 0.00 0.00 0.00 87 1011.7
20260902132919 78 6 5.0 8.0 0.00 0.00 0.00 87 1012.2
20260902132419 77 343 4.0 5.0 0.00 0.00 0.00 89 1011.2
20260902131919 76 272 3.0 4.0 0.00 0.00 0.00 90 1010.8
20260902131419 76 0.0 0.0 0.00 0.00 0.00 90 1010.8
20260902130919 76 0.0 0.0 0.00 0.00 0.00 91 1010.9
20260902130419 75 0.0 0.0 0.00 0.00 0.00 92 1011.0
20260902125919 75 0.0 0.0 0.00 0.00 0.00 92 1011.0
20260902125419 75 0.0 0.0 0.00 0.00 0.00 93 1011.1
20260902124919 75 0.0 0.0 0.00 0.00 0.00 93 1011.1
20260902124420 75 0.0 0.0 0.00 0.00 0.00 93 1011.1
20260902123940 74 0.0 0.0 0.00 0.00 0.00 94 1011.2
20260902123420 74 0.0 0.0 0.00 0.00 0.00 94 1011.3
20260902122920 74 0.0 0.0 0.00 0.00 0.00 95 1011.4
20260902122420 74 0.0 0.0 0.00 0.00 0.00 95 1011.4
20260902121920 74 0.0 0.0 0.00 0.00 0.00 95 1011.5
20260902121420 74 0.0 0.0 0.00 0.00 0.00 96 1011.5
20260902120920 74 0.0 0.0 0.00 0.00 0.00 96 1011.6
20260902120420 74 0.0 0.0 0.00 0.00 0.00 96 1011.6
20260902115921 74 249 0.0 1.0 0.00 0.00 0.00 96 1011.6
20260902115420 73 0.0 0.0 0.00 0.00 0.00 96 1011.5
20260902114920 73 0.0 0.0 0.00 0.00 0.00 97 1011.6
20260902114421 73 0.0 0.0 0.00 0.00 0.00 97 1011.8
20260902113921 73 0.0 0.0 0.00 0.00 0.00 97 1011.7
20260902113421 73 0.0 0.0 0.00 0.00 0.00 97 1011.6
20260902112921 73 0.0 0.0 0.00 0.00 0.00 97 1011.6
20260902112441 73 0.0 0.0 0.00 0.00 0.00 97 1011.7
20260902111921 73 0.0 0.0 0.00 0.00 0.00 97 1011.7
20260902111421 73 0.0 0.0 0.00 0.00 0.00 97 1011.7
20260902110921 73 0.0 0.0 0.00 0.00 0.00 97 1011.7
20260902110421 73 0.0 0.0 0.00 0.00 0.00 97 1011.6
20260902105921 73 0.0 0.0 0.00 0.00 0.00 97 1011.6
20260902105421 73 0.0 0.0 0.00 0.00 0.00 97 1011.5
20260902104922 74 0.0 0.0 0.00 0.00 0.00 96 1011.5
20260902104422 74 0.0 0.0 0.00 0.00 0.00 96 1011.5
20260902103922 74 0.0 0.0 0.00 0.00 0.00 96 1011.4
20260902103422 74 0.0 0.0 0.00 0.00 0.00 96 1011.6
20260902102922 74 0.0 0.0 0.00 0.00 0.00 96 1011.5
20260902102422 74 0.0 0.0 0.00 0.00 0.00 95 1011.4
20260902101922 74 0.0 0.0 0.00 0.00 0.00 95 1011.3
20260902101422 74 0.0 0.0 0.00 0.00 0.00 95 1011.3
20260902100922 74 0.0 0.0 0.00 0.00 0.00 94 1011.4
20260902100422 75 140 1.0 2.0 0.00 0.00 0.00 93 1011.3
20260902095922 75 0.0 0.0 0.00 0.00 0.00 94 1011.4
20260902095422 75 0.0 0.0 0.00 0.00 0.00 94 1011.5
20260902094923 75 0.0 0.0 0.00 0.00 0.00 94 1011.5
20260902094422 75 0.0 0.0 0.00 0.00 0.00 94 1011.4
20260902093922 75 0.0 0.0 0.00 0.00 0.00 93 1011.3
20260902093423 75 0.0 0.0 0.00 0.00 0.00 93 1011.4
20260902092923 75 0.0 0.0 0.00 0.00 0.00 93 1011.3
20260902092443 75 321 0.0 0.0 0.00 0.00 0.00 93 1011.3
20260902091923 75 315 0.0 1.0 0.00 0.00 0.00 93 1011.3
20260902091443 75 0.0 0.0 0.00 0.00 0.00 93 1011.3
20260902090943 75 0.0 0.0 0.00 0.00 0.00 92 1011.2
20260902090423 75 0.0 0.0 0.00 0.00 0.00 93 1011.2
20260902085923 75 0.0 0.0 0.00 0.00 0.00 93 1011.2
20260902085423 75 0.0 0.0 0.00 0.00 0.00 93 1011.2
20260902084924 75 0.0 0.0 0.00 0.00 0.00 93 1011.2
20260902084424 75 0.0 0.0 0.00 0.00 0.00 93 1011.0
20260902083924 75 0.0 0.0 0.00 0.00 0.00 93 1011.0
20260902083444 75 0.0 0.0 0.00 0.00 0.00 93 1010.9
20260902082924 75 0.0 0.0 0.00 0.00 0.00 93 1010.8
20260902082424 75 0.0 0.0 0.00 0.00 0.00 93 1010.7
20260902081924 76 0.0 0.0 0.00 0.00 0.00 93 1010.7
20260902081424 76 0.0 0.0 0.00 0.00 0.00 93 1010.6
20260902080944 76 0.0 0.0 0.00 0.00 0.00 93 1010.6
20260902080424 76 0.0 0.0 0.00 0.00 0.00 93 1010.7
20260902075924 76 0.0 0.0 0.00 0.00 0.00 93 1010.7
20260902075425 76 0.0 0.0 0.00 0.00 0.00 92 1010.7
20260902074924 76 0.0 0.0 0.00 0.00 0.00 92 1010.8
20260902074445 76 0.0 0.0 0.00 0.00 0.00 92 1010.9
20260902073945 76 149 0.0 1.0 0.00 0.00 0.00 91 1010.9
20260902073425 76 0.0 0.0 0.00 0.00 0.00 91 1011.0
20260902072925 76 0.0 0.0 0.00 0.00 0.00 91 1010.9
20260902072425 76 213 1.0 2.0 0.00 0.00 0.00 91 1011.0
20260902071925 76 234 0.0 0.0 0.00 0.00 0.00 92 1010.9
20260902071445 76 271 0.0 0.0 0.00 0.00 0.00 92 1010.9
20260902070925 76 95 0.0 1.0 0.00 0.00 0.00 92 1011.0
20260902070425 76 0.0 0.0 0.00 0.00 0.00 93 1011.0
20260902065925 76 254 1.0 2.0 0.00 0.00 0.00 93 1011.0
20260902065425 75 186 0.0 0.0 0.00 0.00 0.00 95 1010.9
20260902064926 75 0.0 0.0 0.00 0.00 0.00 96 1010.9
20260902064425 75 0.0 0.0 0.00 0.00 0.00 97 1010.9
20260902063926 75 0.0 0.0 0.00 0.00 0.00 96 1010.8
20260902063426 75 239 0.0 1.0 0.00 0.00 0.00 97 1010.9
20260902062926 75 0.0 0.0 0.00 0.00 0.00 96 1010.9
20260902062506 75 0.0 0.0 0.00 0.00 0.00 96 1010.8
20260902061946 75 0.0 0.0 0.00 0.00 0.00 96 1010.9
20260902061426 75 0.0 0.0 0.00 0.00 0.00 96 1010.9
20260902060926 75 0.0 0.0 0.00 0.00 0.00 96 1010.8
20260902060426 75 0.0 0.0 0.00 0.00 0.00 96 1010.7
20260902060006 74 0.0 0.0 0.00 0.00 0.00 96 1010.6
20260902055426 74 0.0 0.0 0.00 0.00 0.00 95 1010.6
20260902054926 74 0.0 0.0 0.00 0.00 0.00 95 1010.6
20260902054426 74 0.0 0.0 0.00 0.00 0.00 95 1010.6
20260902053946 74 0.0 0.0 0.00 0.00 0.00 94 1010.6
20260902053427 74 0.0 0.0 0.00 0.00 0.00 94 1010.5
20260902052927 74 0.0 0.0 0.00 0.00 0.00 93 1010.7
20260902052427 74 0.0 0.0 0.00 0.00 0.00 93 1010.7
20260902051927 74 0.0 0.0 0.00 0.00 0.00 93 1010.8
20260902051427 74 0.0 0.0 0.00 0.00 0.00 93 1010.8
20260902050927 74 0.0 0.0 0.00 0.00 0.00 93 1010.9
20260902050427 74 0.0 0.0 0.00 0.00 0.00 93 1010.9
20260902045937 74 0.0 0.0 0.00 0.00 0.00 93 1010.9
20260902045437 74 0.0 0.0 0.00 0.00 0.00 92 1010.9
20260902044937 74 0.0 0.0 0.00 0.00 0.00 92 1010.9
20260902044417 74 0.0 0.0 0.00 0.00 0.00 92 1010.9
20260902043937 74 0.0 0.0 0.00 0.00 0.00 92 1010.8
20260902043417 74 0.0 0.0 0.00 0.00 0.00 92 1010.9
20260902042917 74 0.0 0.0 0.00 0.00 0.00 92 1010.8
20260902042437 75 0.0 0.0 0.00 0.00 0.00 92 1010.7
20260902041917 75 0.0 0.0 0.00 0.00 0.00 92 1010.8
20260902041557 75 0.0 0.0 0.00 0.00 0.00 91 1010.8
20260902040917 75 0.0 0.0 0.00 0.00 0.00 91 1010.8
20260902040418 75 0.0 0.0 0.00 0.00 0.00 91 1010.9
20260902035918 75 0.0 0.0 0.00 0.00 0.00 91 1011.0
20260902035417 75 0.0 0.0 0.00 0.00 0.00 91 1011.0
20260902034918 75 0.0 0.0 0.00 0.00 0.00 91 1011.2
20260902034418 75 0.0 0.0 0.00 0.00 0.00 92 1011.2
20260902033918 75 264 0.0 1.0 0.00 0.00 0.00 92 1011.2
20260902033418 75 0.0 0.0 0.00 0.00 0.00 92 1011.2
20260902032918 75 0.0 0.0 0.00 0.00 0.00 91 1011.1
20260902032416 75 239 0.0 1.0 0.00 0.00 0.00 91 1011.1
20260902031915 75 0.0 0.0 0.00 0.00 0.00 91 1011.1
20260902031435 75 0.0 0.0 0.00 0.00 0.00 90 1011.1
20260902030915 75 0.0 0.0 0.00 0.00 0.00 90 1011.1
20260902030416 75 0.0 0.0 0.00 0.00 0.00 90 1011.2
20260902025936 75 0.0 0.0 0.00 0.00 0.00 90 1011.2
20260902025416 75 0.0 0.0 0.00 0.00 0.00 90 1011.2
20260902024916 75 0.0 0.0 0.00 0.00 0.00 90 1011.2
20260902024416 75 0.0 0.0 0.00 0.00 0.00 89 1011.2
20260902023916 75 0.0 0.0 0.00 0.00 0.00 89 1011.2
20260902023416 76 0.0 0.0 0.00 0.00 0.00 89 1011.2
20260902022936 76 0.0 0.0 0.00 0.00 0.00 89 1011.2
20260902022456 76 0.0 0.0 0.00 0.00 0.00 89 1011.2
20260902021936 76 0.0 0.0 0.00 0.00 0.00 88 1011.2
20260902021416 76 0.0 0.0 0.00 0.00 0.00 88 1011.2
20260902020916 76 0.0 0.0 0.00 0.00 0.00 88 1011.2
20260902020416 76 0.0 0.0 0.00 0.00 0.00 88 1011.2
20260902015917 76 0.0 0.0 0.00 0.00 0.00 88 1011.2
20260902015436 76 0.0 0.0 0.00 0.00 0.00 87 1011.2
20260902014917 76 0.0 0.0 0.00 0.00 0.00 87 1011.1
20260902014417 76 41 0.0 1.0 0.00 0.00 0.00 87 1011.1
20260902013917 76 0.0 0.0 0.00 0.00 0.00 86 1011.1
20260902013417 77 0.0 0.0 0.00 0.00 0.00 86 1011.0
20260902012917 77 0.0 0.0 0.00 0.00 0.00 86 1011.0
20260902012417 77 89 0.0 0.0 0.00 0.00 0.00 85 1011.1
20260902011917 77 0.0 0.0 0.00 0.00 0.00 85 1011.0
20260902011417 77 0.0 0.0 0.00 0.00 0.00 85 1010.9
20260902010917 77 0.0 0.0 0.00 0.00 0.00 84 1010.8
20260902010417 77 0.0 0.0 0.00 0.00 0.00 84 1010.6
20260902005917 77 0.0 0.0 0.00 0.00 0.00 83 1010.6
20260902005438 78 0.0 0.0 0.00 0.00 0.00 82 1010.5
20260902004918 78 0.0 0.0 0.00 0.00 0.00 82 1010.5
20260902004418 78 0.0 0.0 0.00 0.00 0.00 82 1010.4
20260902003918 78 0.0 0.0 0.00 0.00 0.00 81 1010.5
20260902003418 79 0.0 0.0 0.00 0.00 0.00 81 1010.4
20260902002918 79 0.0 0.0 0.00 0.00 0.00 80 1010.5
20260902002418 79 0.0 0.0 0.00 0.00 0.00 79 1010.5
20260902001918 79 0.0 0.0 0.00 0.00 0.00 80 1010.7
20260902001455 79 0.0 0.0 0.00 0.00 0.00 79 1010.7
20260902000915 79 0.0 0.0 0.00 0.00 0.00 79 1010.9
20260902000436 80 212 1.0 2.0 0.00 0.00 0.00 80 1011.0
20260901235916 80 244 0.0 1.0 0.00 0.00 0.00 81 1011.0
20260901235415 80 234 0.0 0.0 0.00 0.00 0.00 79 1011.0
20260901234915 80 284 1.0 2.0 0.00 0.00 0.00 80 1011.0
20260901234416 80 122 0.0 2.0 0.00 0.00 0.00 82 1011.0
20260901233916 80 0.0 0.0 0.00 0.00 0.00 83 1011.1
20260901233416 80 0.0 0.0 0.00 0.00 0.00 84 1011.2
20260901232916 80 11 0.0 1.0 0.00 0.00 0.00 84 1011.2
20260901232416 80 327 0.0 1.0 0.00 0.00 0.00 84 1011.3
20260901231916 80 0.0 0.0 0.00 0.00 0.00 83 1011.2
20260901231416 80 107 1.0 1.0 0.00 0.00 0.00 84 1011.4
20260901230917 81 237 0.0 1.0 0.00 0.00 0.00 83 1011.6
20260901230436 81 0.0 0.0 0.00 0.00 0.00 82 1011.4
20260901225916 81 0.0 0.0 0.00 0.00 0.00 83 1011.3
20260901225416 81 0.0 0.0 0.00 0.00 0.00 82 1011.3
20260901224917 81 271 1.0 3.0 0.00 0.00 0.00 82 1011.1
20260901224416 81 0.0 0.0 0.00 0.00 0.00 82 1011.2
20260901223917 81 47 1.0 2.0 0.00 0.00 0.00 83 1011.2
20260901223417 81 0.0 0.0 0.00 0.00 0.00 81 1011.0
20260901222917 82 0.0 0.0 0.00 0.00 0.00 81 1011.0
20260901222417 82 0.0 0.0 0.00 0.00 0.00 80 1010.9
20260901221917 82 132 0.0 1.0 0.00 0.00 0.00 80 1011.0
20260901221417 82 306 1.0 2.0 0.00 0.00 0.00 79 1011.2
20260901220917 82 79 0.0 1.0 0.00 0.00 0.00 79 1011.2
20260901220417 83 296 0.0 0.0 0.00 0.00 0.00 78 1011.3
20260901215917 83 236 2.0 4.0 0.00 0.00 0.00 77 1011.5
20260901215417 83 69 1.0 3.0 0.00 0.00 0.00 77 1011.5
20260901214938 84 161 1.0 1.0 0.00 0.00 0.00 77 1011.6
20260901214438 84 47 2.0 3.0 0.00 0.00 0.00 77 1011.6
20260901213918 84 36 2.0 5.0 0.00 0.00 0.00 77 1011.4
20260901213415 84 212 2.0 3.0 0.00 0.00 0.00 77 1011.4
20260901212918 84 135 2.0 4.0 0.00 0.00 0.00 76 1011.3
20260901212415 85 358 2.0 4.0 0.00 0.00 0.00 75 1011.3
20260901211915 85 233 2.0 6.0 0.00 0.00 0.00 74 1011.2
20260901211415 85 69 2.0 7.0 0.00 0.00 0.00 73 1011.2